sat.trackr.live / text

‹ back to catalog

STARLINK-11282 [DTC]

NORAD 60992 · 2024-158C

PAYLOAD ACTIVE UNKNOWN

§ Identity

Operator
Country
US
Launch date
2024-09-05
Launch site
AFETR
Launch vehicle
Mass (kg)
RCS (m²)

Purposes: comms

External: N2YO · Heavens-Above · Gunter

§ Orbital elements

Epoch: 2026-09-21T20:16:50.405376Z

Period
91.74 min
Inclination
53.1591°
Eccentricity
0.0001280
Mean motion
15.69723293 rev/d
Perigee alt
358.8 km
Apogee alt
360.6 km
Semi-major
6,737.8 km
B*
2.0159e-5
RAAN
34.2497°
Arg perigee
82.0535°
Mean anomaly
278.0628°
Rev number
11,840

§ Raw data

STARLINK-11282 [DTC]1 60992U 24158C   26264.84502784  .00001855  00000+0  20159-4 0  99932 60992  53.1591  34.2497 0001280  82.0535 278.0628 15.69723293118409

JSON: /api/v1/satellites/60992 · /tle

For live sub-satellite position, see the globe view (requires WebGL).

§ Visibility from observer

Set your observer location to see the next 7 days of passes ≥ 10°. The values pass through the URL so the page stays shareable.

No JS? Fill the form by hand. The geolocation button needs JavaScript.